ランキン彗星

501P/Rankin (2017)

English version
Home page
Updated on June 14, 2025

---------------------------------------------------------------------

・ プロフィール

符号 501P/2017 B6

・ 軌道要素

                    Epoch = 2017 July 26.0 TT
     T = 2017 Aug.  6.88773 TT        Peri. =  52.68695
     e = 0.6942423                    Node  = 140.63774 2000.0
     q = 0.6832753 AU                 Incl. =  10.12736
       a =  2.2346955 AU   n = 0.29503703   P =   3.34 years

・ 光度変化

        H = 19.5  G = 0.15

---------------------------------------------------------------------

軌道要素は、CBET 5520に掲載されたものです。
光度グラフはComet for Windowsで作成したものです。

---------------------------------------------------------------------

Copyright(C) Seiichi Yoshida (comet@aerith.net). All rights reserved.